Location: Unspecified
(0.0000°N, 0.0000°E)
Time: 11:23:10
(UTC+00:00)

Courier 1B - Pass Details

Date: 23 November 2019
Orbit: 963 x 1209 km, 28.3° (Epoch: 07 December)

Event Time Altitude Azimuth Distance (km) Brightness Sun altitude
Rises 14:00:55 0° 271° (W) 3,648 11.0 51.3°
Reaches altitude 10° 14:04:03 10° 258° (WSW) 2,722 10.6 50.7°
Maximum altitude 14:09:13 24° 206° (SSW) 1,945 10.2 49.6°
Drops below altitude 10° 14:14:34 10° 154° (SSE) 2,835 10.1 48.4°
Sets 14:17:57 0° 141° (SE) 3,835 10.6 47.7°
